Ponca City, OK

10:18 PM CST on January 22, 2018 (GMT -0600)
Ponca City Municipal

Weather History for KPNC - January, 2013

Change the Weather History Date:

Monday, January 28, 2013

  Actual Average Record
Temperature  
Mean Temperature 66 °F -  
Max Temperature 75 °F 49 °F 79 °F (2015)
Min Temperature 57 °F 28 °F -2 °F (1948)
Cooling Degree Days 1    
Growing Degree Days 16 (Base 50)    
Moisture  
Dew Point 57 °F    
Average Humidity 70    
Maximum Humidity 87    
Minimum Humidity 50    
Precipitation  
Precipitation 0.00 in - - ()
Sea Level Pressure  
Sea Level Pressure 29.76 in    
Wind  
Wind Speed 11 mph (South)    
Max Wind Speed 22 mph    
Max Gust Speed 34 mph    
Visibility 10 miles    
Events      
Averages and records for this station are not official NWS values.
T = Trace of Precipitation, MM = Missing Value Source: NWS Daily Summary

Daily Weather History Graph

Daily Weather History Graph

Search for Another Location

Airport or City:

Trip Planner

Search our weather history database for the weather conditions in past years. The results will help you decide how hot, cold, wet, or windy it might be!

Date:

Astronomy

Jan. 28, 2013 Rise Set
Actual Time 7:33 AM CST 5:50 PM CST
Civil Twilight 7:05 AM CST 6:17 PM CST
Nautical Twilight 6:34 AM CST 6:48 PM CST
Astronomical Twilight 6:04 AM CST 7:19 PM CST
Moon 7:41 PM CST (1/28) 8:03 AM CST (1/28)
Length of Visible Light 11h 11m
Length of Day
10h 16m
Full, 98% of the Moon is Illuminated
Jan 28
Full
Feb 3
Last Quarter
Feb 10
New
Feb 17
First Quarter
Feb 25
Full

Hourly Weather History & Observations

Time (CST) Temp. Dew Point Humidity Pressure Visibility Wind Dir Wind Speed Gust Speed Precip Events Conditions
1:53 AM 61.0 °F 54.0 °F 78% 29.81 in 10.0 mi SSW 6.9 mph - N/A   Clear
2:53 AM 60.1 °F 54.0 °F 80% 29.80 in 10.0 mi South 8.1 mph - N/A   Clear
3:53 AM 59.0 °F 54.0 °F 83% 29.80 in 10.0 mi South 8.1 mph - N/A   Clear
4:53 AM 59.0 °F 54.0 °F 83% 29.81 in 10.0 mi South 6.9 mph - N/A   Clear
5:53 AM 57.9 °F 54.0 °F 87% 29.81 in 10.0 mi South 6.9 mph - N/A   Clear
6:53 AM 59.0 °F 54.0 °F 83% 29.83 in 10.0 mi South 8.1 mph - N/A   Clear
7:53 AM 59.0 °F 54.0 °F 83% 29.84 in 10.0 mi South 8.1 mph - N/A   Clear
8:53 AM 62.1 °F 57.0 °F 84% 29.84 in 10.0 mi SSW 10.4 mph 18.4 mph N/A   Clear
9:53 AM 64.9 °F 59.0 °F 81% 29.84 in 10.0 mi SSW 12.7 mph 26.5 mph N/A   Mostly Cloudy
10:53 AM 71.1 °F 59.0 °F 66% 29.84 in 10.0 mi SSW 19.6 mph 28.8 mph N/A   Partly Cloudy
11:35 AM 71.6 °F 59.0 °F 64% 29.84 in 10.0 mi SSW 21.9 mph 33.4 mph N/A   Mostly Cloudy
11:53 AM 73.0 °F 59.0 °F 61% 29.82 in 10.0 mi SSW 13.8 mph 33.4 mph N/A   Mostly Cloudy
12:12 PM 73.4 °F 59.0 °F 61% 29.83 in 10.0 mi SSW 20.7 mph 34.5 mph N/A   Mostly Cloudy
12:53 PM 73.0 °F 57.9 °F 59% 29.78 in 10.0 mi SSW 18.4 mph 29.9 mph N/A   Mostly Cloudy
1:53 PM 75.9 °F 55.9 °F 50% 29.73 in 10.0 mi SSW 12.7 mph 27.6 mph N/A   Overcast
2:53 PM 75.0 °F 57.0 °F 53% 29.72 in 10.0 mi SSW 17.3 mph 31.1 mph N/A   Mostly Cloudy
3:53 PM 75.9 °F 57.0 °F 52% 29.70 in 10.0 mi South 17.3 mph 26.5 mph N/A   Scattered Clouds
4:53 PM 75.0 °F 55.9 °F 51% 29.68 in 10.0 mi South 15.0 mph 28.8 mph N/A   Mostly Cloudy
5:53 PM 72.0 °F 57.0 °F 59% 29.69 in 10.0 mi South 10.4 mph 21.9 mph N/A   Partly Cloudy
6:53 PM 70.0 °F 57.9 °F 65% 29.69 in 10.0 mi South 13.8 mph 21.9 mph N/A   Clear
7:53 PM 70.0 °F 59.0 °F 68% 29.69 in 10.0 mi South 18.4 mph 27.6 mph N/A   Clear
8:53 PM 69.1 °F 60.1 °F 73% 29.69 in 10.0 mi South 19.6 mph 32.2 mph N/A   Scattered Clouds
9:53 PM 68.0 °F 61.0 °F 78% 29.68 in 10.0 mi South 16.1 mph 25.3 mph N/A   Partly Cloudy
10:53 PM 68.0 °F 60.1 °F 76% 29.66 in 10.0 mi South 17.3 mph 34.5 mph N/A   Clear
11:53 PM 68.0 °F 60.1 °F 76% 29.66 in 10.0 mi South 10.4 mph 20.7 mph N/A   Clear